Flag for Switzerland Weather past 2 weeks in Cham, Zug, Switzerland

Now
58 °F

Cool.


Feels Like: 58 °F
Forecast: 52 / 79 °F
Wind: 1 mph from Northeast

Location: Zurich Town / Ville.

Current Time: Sep 18, 2014 at 6:06:58 AM

Latest Report: Sep 18, 2014 at 4:00 AM


Visibility: N/A

Pressure: 29.89 "Hg

Humidity: 94%

Dew point: 57 °F

Location of ChamLocation

Historic Weather in Cham — Graph

°F

Cham temperature yesterday

Maximum temperature yesterday: 72 °F (at 4:00 PM)
Minimum temperature yesterday: 56 °F (at 7:00 AM)
Average temperature yesterday: 63 °F

Past Weeks' High & Low Weather Summary

 TemperatureHumidityPressure
High80 °F (Sep 8, 3:00 PM)100% (Sep 16, 7:00 AM)30.16 "Hg (Sep 16, 7:00 AM)
Low49 °F (Sep 12, 6:00 AM)47% (Sep 7, 4:00 PM)29.81 "Hg (Sep 17, 5:00 PM)
Average61 °F82%29.98 "Hg
* Reported Sep 3 4:00 AM — Sep 18 4:00 AM, Cham, Weather by CustomWeather, © 2014

Note: Actual official high and low records may vary slightly from our data, if they occured in-between our weather recording intervals... More about our weather records

Advertising

Cham weather history for previous 24 hours

 ConditionsComfort  
Time TempWeatherWind HumidityBarometerVisibility
4:00 AM
Sep 18
58 °FCool.1 mph94%29.89 "HgN/A
3:00 AM59 °FCool.1 mph93%29.89 "HgN/A
2:00 AM60 °FCool.2 mph92%29.88 "HgN/A
1:00 AM60 °FCool.2 mph90%29.88 "HgN/A
12:00 AM60 °FCool.2 mph88%29.88 "HgN/A
11:00 PM
Sep 17
62 °FCool.2 mph85%29.88 "HgN/A
10:00 PM62 °FCool.3 mph85%29.88 "HgN/A
9:00 PM64 °FMild.6 mph81%29.85 "HgN/A
8:00 PM65 °FPassing clouds.6 mph77%29.84 "HgN/A
7:00 PM69 °FMild.2 mph71%29.83 "HgN/A
6:00 PM71 °FMild.1 mph65%29.81 "HgN/A
5:00 PM71 °FMild.3 mph64%29.81 "HgN/A
4:00 PM72 °FMild.5 mph62%29.81 "HgN/A
3:00 PM70 °FMild.3 mph68%29.83 "HgN/A
2:00 PM71 °FPartly sunny.5 mph64%29.84 "HgN/A
1:00 PM69 °FMild.5 mph63%29.86 "HgN/A
12:00 PM66 °FMild.3 mph69%29.89 "HgN/A
11:00 AM63 °FMild.5 mph81%29.90 "HgN/A
10:00 AM57 °FCool.5 mph94%29.93 "HgN/A
9:00 AM57 °FCool.1 mph98%29.93 "HgN/A
8:00 AM56 °FScattered clouds.3 mph100%29.93 "HgN/A
7:00 AM56 °FCool.5 mph99%29.93 "HgN/A
6:00 AM57 °FCool.2 mph95%29.93 "HgN/A
Weather by CustomWeather, © 2014

See weather overviewHow to use our weather pages